[[{"header":{"parameterUnit":"m.s-1","parameterCategory":1,"la1":30.2991,"la2":30.254,"lo1":-89.0895,"lo2":-89.0444,"dy":0.0017,"dx":0.0017,"nx":28,"ny":28,"refTime":"2023-10-20T03:00:00:Z","depth":0,"parameterNumber":2,"parameterNumberName":"U-component_of_WINDS"},"data":[0,0,0,0,0,0,0,0,0,0,0,0,0,0,0,0,0,0,0,0,0,0,0,0,0,0,0,0,0,0,0,0,0,0,0,0,0,0,0,0,0,0,0,0,0,0,0,0,0,0,0,0,0,0,0,0,0,0,-1.8234,-1.8236,0,-1.838,-1.8382,-1.8384,-1.8446,-1.8446,-1.8446,-1.8445,-1.8596,-1.86,-1.8605,0,0,0,0,0,0,0,0,0,0,0,0,0,-1.8008,-1.8012,-1.8234,-1.8236,-1.8238,-1.838,-1.8382,-1.8384,-1.8446,-1.8446,-1.8446,-1.8445,-1.8595,-1.86,-1.8605,0,0,0,0,0,0,0,0,0,0,0,0,0,-1.8125,-1.8013,-1.8234,-1.8286,-1.8292,-1.838,-1.8382,-1.8385,-1.8446,-1.8446,-1.8446,-1.8445,-1.8593,-1.8599,-1.8606,-1.8653,0,0,-1.8625,-1.8628,0,0,0,0,0,0,0,0,-1.8119,-1.8134,-1.8276,-1.8282,-1.8289,-1.8395,-1.8358,-1.8475,-1.8446,-1.8388,-1.8445,-1.8445,-1.853,-1.8541,-1.857,-1.866,-1.8667,-1.8626,-1.863,-1.8632,-1.8634,0,0,0,0,0,0,0,-1.811,-1.8128,-1.8292,-1.8278,-1.8286,-1.8302,-1.8318,-1.838,-1.8459,-1.8393,-1.8398,-1.8414,-1.8533,-1.8563,-1.8573,-1.8669,-1.8626,-1.8631,-1.8635,-1.8638,-1.8804,-1.8805,0,0,0,0,0,0,-1.8094,-1.812,-1.8287,-1.8296,-1.8201,-1.8306,-1.8324,-1.8361,-1.8459,-1.8473,-1.8414,-1.8416,-1.8552,-1.8566,-1.8579,-1.8641,-1.8632,-1.8638,-1.8642,-1.8804,-1.8804,-1.8805,0,0,0,0,0,0,-1.8089,-1.8108,-1.8281,-1.821,-1.8233,-1.831,-1.8351,-1.8364,-1.8395,-1.8475,-1.8489,-1.8431,-1.8553,-1.857,-1.8634,-1.8647,-1.8641,-1.8647,-1.8803,-1.8804,-1.8805,-1.8764,0,0,0,0,0,0,-1.8082,-1.8106,-1.8125,-1.821,-1.8237,-1.8334,-1.8352,-1.8368,-1.8405,-1.841,-1.8494,-1.8508,-1.8554,-1.8624,-1.864,-1.8655,-1.8652,-1.8802,-1.8803,-1.8805,-1.8764,-1.8763,-1.8762,0,0,0,0,0,-1.8073,-1.8108,-1.8125,-1.8145,-1.8262,-1.8334,-1.835,-1.8402,-1.8406,-1.8426,-1.8477,-1.8505,-1.8642,-1.863,-1.8649,-1.8666,-1.8802,-1.8803,-1.8804,-1.8765,-1.8763,-1.8762,0,0,0,0,0,0,-1.8023,-1.812,-1.8141,-1.8203,-1.826,-1.8345,-1.8371,-1.8399,-1.8456,-1.8458,-1.852,-1.8539,-1.8597,-1.8638,-1.8622,-1.8716,-1.8724,-1.8729,-1.8688,-1.8687,-1.8686,-1.8675,-1.8657,0,0,0,0,0,-1.8019,-1.8069,-1.8152,-1.8199,-1.8226,-1.8293,-1.8327,-1.8362,-1.8424,-1.8448,-1.8504,-1.8563,-1.8619,-1.8655,-1.8712,-1.877,-1.8789,-1.8791,-1.879,-1.8788,-1.8792,-1.8826,-1.8827,-1.881,-1.881,-1.8809,0,0,-1.8011,-1.807,-1.8099,-1.819,-1.8238,-1.8289,-1.8313,-1.8367,-1.8405,-1.8456,-1.852,-1.8563,-1.8632,-1.8693,-1.8723,-1.8729,-1.8801,-1.879,-1.8788,-1.8793,-1.8827,-1.8829,-1.883,-1.881,-1.881,-1.881,0,0,-1.8024,-1.8074,-1.8118,-1.8166,-1.8238,-1.8282,-1.8293,-1.8373,-1.8403,-1.8468,-1.8507,-1.8554,-1.865,-1.8697,-1.8734,-1.8762,-1.879,-1.8779,-1.8773,-1.8805,-1.8806,-1.8808,-1.8818,-1.8821,-1.8782,-1.8782,-1.8782,0,-1.8005,-1.8084,-1.8138,-1.8189,-1.8227,-1.8275,-1.8321,-1.8364,-1.8451,-1.8476,-1.8482,-1.8602,-1.8653,-1.8725,-1.8732,-1.876,-1.8774,-1.877,-1.8802,-1.8804,-1.8806,-1.8816,-1.882,-1.8781,-1.8781,-1.8781,-1.8781,0,-1.8058,-1.8111,-1.8138,-1.8221,-1.8262,-1.831,-1.8371,-1.8407,-1.8437,-1.8481,-1.8545,-1.8607,-1.8676,-1.8696,-1.8727,-1.8773,-1.8774,-1.879,-1.8799,-1.8805,-1.8816,-1.882,-1.8778,-1.8779,-1.8779,-1.878,0,0,-1.8044,-1.8154,-1.8163,-1.82,-1.8283,-1.8325,-1.8375,-1.8442,-1.8471,-1.8529,-1.8572,-1.8651,-1.8666,-1.8707,-1.8744,-1.8771,-1.8789,-1.8784,-1.8786,-1.8783,-1.8843,-1.8831,-1.8835,-1.8808,-1.8809,-1.8809,-1.8837,0,-1.8068,-1.8158,-1.8208,-1.8278,-1.8327,-1.8373,-1.8416,-1.8471,-1.8512,-1.856,-1.8606,-1.8661,-1.8676,-1.8702,-1.8731,-1.8781,-1.8802,-1.878,-1.8848,-1.885,-1.883,-1.884,-1.8828,-1.8851,-1.8842,-1.8842,-1.8843,0,-1.8108,-1.8164,-1.8239,-1.8315,-1.8337,-1.8375,-1.844,-1.8486,-1.8548,-1.8577,-1.8622,-1.8658,-1.8711,-1.8716,-1.879,-1.8773,-1.8804,-1.8833,-1.8835,-1.8844,-1.8847,-1.885,-1.886,-1.8864,-1.885,-1.8849,-1.8849,0,-1.809,-1.8185,-1.8242,-1.8272,-1.8362,-1.8387,-1.8426,-1.8488,-1.8525,-1.8582,-1.8606,-1.8668,-1.8702,-1.8749,-1.8801,-1.8799,-1.887,-1.8878,-1.8894,-1.8893,-1.8908,-1.8907,-1.8924,-1.8927,-1.8927,-1.8927,-1.8927,0,-1.8112,-1.8156,-1.8235,-1.827,-1.832,-1.8375,-1.8424,-1.8466,-1.8521,-1.8564,-1.8607,-1.8647,-1.8712,-1.876,-1.8801,-1.8856,-1.8871,-1.8895,-1.8906,-1.8892,-1.8889,-1.8913,-1.8913,-1.8928,-1.8928,-1.8927,-1.8927,0,-1.8101,-1.8156,-1.8221,-1.83,-1.832,-1.8354,-1.8422,-1.8457,-1.85,-1.8555,-1.8571,-1.8638,-1.8697,-1.8752,-1.8831,-1.8858,-1.8913,-1.8926,-1.8892,-1.8898,-1.8911,-1.8909,-1.8945,-1.8952,-1.8949,-1.8949,-1.8949,0,-1.8112,-1.8147,-1.8229,-1.8261,-1.8298,-1.835,-1.8387,-1.8443,-1.848,-1.8553,-1.858,-1.8641,-1.8694,-1.8785,-1.8841,-1.8901,-1.8916,-1.8925,-1.8926,-1.891,-1.8917,-1.8914,-1.8918,-1.8924,-1.8924,-1.8923,-1.8923,0,-1.8125,-1.815,-1.8202,-1.8263,-1.8307,-1.8358,-1.8411,-1.8434,-1.85,-1.8539,-1.8599,-1.864,-1.8719,-1.878,-1.8846,-1.8886,-1.8915,-1.8922,-1.8929,-1.8916,-1.8894,-1.8906,-1.8889,-1.8921,-1.8922,-1.8922,-1.8922,-1.8922,-1.8125,-1.8158,-1.8221,-1.8277,-1.8322,-1.837,-1.8407,-1.8454,-1.8505,-1.8574,-1.8603,-1.8664,-1.8725,-1.8817,-1.8856,-1.8904,-1.8911,-1.8921,-1.8924,-1.8925,-1.8922,-1.8886,-1.8916,-1.8916,-1.8916,-1.8916,-1.8916,0,-1.8141,-1.8183,-1.8234,-1.8306,-1.835,-1.8373,-1.8432,-1.8468,-1.8521,-1.8575,-1.8625,-1.8693,-1.8752,-1.8812,-1.8873,-1.89,-1.8915,-1.8915,-1.8914,-1.8922,-1.8913,-1.8901,-1.8901,-1.8901,-1.8901,-1.8901,-1.8901,-1.8901,-1.8154,-1.821,-1.8242,-1.8321,-1.8363,-1.8422,-1.8454,-1.8498,-1.8542,-1.8616,-1.8665,-1.8703,-1.8759,-1.8825,-1.888,-1.8896,-1.8917,-1.8912,-1.8932,-1.8922,-1.8923,-1.8924,-1.8913,-1.8916,-1.8916,-1.8937,-1.8938,-1.8938]},{"header":{"parameterUnit":"m.s-1","parameterCategory":1,"la1":30.2991,"la2":30.254,"lo1":-89.0895,"lo2":-89.0444,"dy":0.0017,"dx":0.0017,"nx":28,"ny":28,"refTime":"2023-10-20T03:00:00:Z","depth":0,"parameterNumber":3,"parameterNumberName":"V-component_of_WINDS"},"data":[0,0,0,0,0,0,0,0,0,0,0,0,0,0,0,0,0,0,0,0,0,0,0,0,0,0,0,0,0,0,0,0,0,0,0,0,0,0,0,0,0,0,0,0,0,0,0,0,0,0,0,0,0,0,0,0,0,0,-3.0414,-3.0415,0,-3.0485,-3.0486,-3.0487,-3.045,-3.0448,-3.0447,-3.0445,-3.0514,-3.0518,-3.0521,0,0,0,0,0,0,0,0,0,0,0,0,0,-3.0245,-3.0248,-3.0414,-3.0415,-3.0416,-3.0485,-3.0486,-3.0487,-3.0451,-3.0448,-3.0446,-3.0444,-3.0513,-3.0517,-3.0522,0,0,0,0,0,0,0,0,0,0,0,0,0,-3.0317,-3.0249,-3.0414,-3.0406,-3.0406,-3.0485,-3.0486,-3.0487,-3.0451,-3.0448,-3.0445,-3.0443,-3.0512,-3.0517,-3.0522,-3.0612,0,0,-3.0539,-3.0541,0,0,0,0,0,0,0,0,-3.0313,-3.0324,-3.0407,-3.0407,-3.0407,-3.0456,-3.0452,-3.0529,-3.0452,-3.0434,-3.0445,-3.0441,-3.0497,-3.0503,-3.0523,-3.0615,-3.0618,-3.0539,-3.0542,-3.0545,-3.0546,0,0,0,0,0,0,0,-3.0308,-3.032,-3.0442,-3.0408,-3.0408,-3.0398,-3.0406,-3.0466,-3.048,-3.0435,-3.0433,-3.0442,-3.0497,-3.0518,-3.0524,-3.0619,-3.0539,-3.0544,-3.0547,-3.0549,-3.0788,-3.0791,0,0,0,0,0,0,-3.0304,-3.0316,-3.044,-3.0444,-3.0352,-3.0404,-3.0412,-3.0443,-3.0479,-3.0482,-3.0444,-3.044,-3.051,-3.0518,-3.0526,-3.0634,-3.0545,-3.055,-3.0553,-3.0785,-3.0788,-3.0792,0,0,0,0,0,0,-3.0301,-3.0315,-3.0437,-3.038,-3.0394,-3.041,-3.0445,-3.0446,-3.0467,-3.0486,-3.0488,-3.0463,-3.0508,-3.0519,-3.0591,-3.0635,-3.0552,-3.0557,-3.0781,-3.0786,-3.079,-3.0848,0,0,0,0,0,0,-3.0296,-3.0314,-3.0349,-3.0381,-3.0398,-3.0501,-3.0448,-3.0449,-3.0477,-3.0472,-3.0505,-3.0507,-3.0507,-3.0583,-3.0596,-3.0641,-3.0561,-3.0777,-3.0783,-3.0789,-3.0843,-3.0855,-3.0865,0,0,0,0,0,-3.029,-3.0362,-3.0351,-3.0366,-3.0442,-3.0504,-3.0513,-3.0512,-3.048,-3.0515,-3.0527,-3.0506,-3.0628,-3.0591,-3.0605,-3.0653,-3.0774,-3.0781,-3.0788,-3.0838,-3.0852,-3.0864,0,0,0,0,0,0,-3.0334,-3.0366,-3.0354,-3.0439,-3.0469,-3.0498,-3.0541,-3.0527,-3.0566,-3.056,-3.0555,-3.0563,-3.0638,-3.0652,-3.061,-3.0741,-3.0696,-3.0707,-3.0729,-3.0743,-3.0754,-3.0749,-3.0566,0,0,0,0,0,-3.0354,-3.0403,-3.0428,-3.05,-3.0516,-3.0526,-3.0553,-3.055,-3.058,-3.0592,-3.061,-3.064,-3.0685,-3.0715,-3.0757,-3.0844,-3.0851,-3.0884,-3.0895,-3.0904,-3.0913,-3.096,-3.0976,-3.0815,-3.0815,-3.0814,0,0,-3.0395,-3.0418,-3.0449,-3.0509,-3.0532,-3.0583,-3.0537,-3.0592,-3.0629,-3.06,-3.067,-3.0684,-3.0717,-3.0797,-3.0833,-3.0811,-3.0959,-3.0913,-3.092,-3.0924,-3.0969,-3.0984,-3.0998,-3.0819,-3.0818,-3.0818,0,0,-3.0495,-3.0518,-3.0581,-3.0605,-3.0641,-3.0647,-3.0663,-3.0694,-3.0702,-3.0772,-3.0752,-3.0795,-3.0873,-3.0897,-3.092,-3.103,-3.1012,-3.1044,-3.1102,-3.1148,-3.1161,-3.1172,-3.1211,-3.1226,-3.1053,-3.1053,-3.1053,0,-3.0541,-3.0617,-3.0615,-3.0672,-3.0698,-3.0676,-3.074,-3.0763,-3.081,-3.0829,-3.0804,-3.0901,-3.0922,-3.1008,-3.1035,-3.1054,-3.107,-3.104,-3.1159,-3.117,-3.1181,-3.1218,-3.1233,-3.1056,-3.1056,-3.1056,-3.1055,0,-3.0672,-3.0725,-3.0771,-3.0819,-3.0851,-3.0911,-3.0917,-3.0949,-3.0943,-3.0952,-3.1023,-3.1047,-3.1094,-3.1114,-3.1108,-3.1199,-3.1185,-3.116,-3.1115,-3.12,-3.1235,-3.125,-3.1062,-3.106,-3.1059,-3.1058,0,0,-3.0802,-3.0848,-3.0865,-3.0887,-3.0925,-3.0965,-3.1024,-3.1071,-3.1099,-3.1132,-3.1181,-3.1248,-3.1225,-3.1251,-3.1247,-3.1287,-3.1373,-3.1257,-3.1258,-3.1278,-3.1476,-3.1495,-3.1511,-3.1362,-3.1364,-3.1367,-3.1473,0,-3.0905,-3.1009,-3.1009,-3.1104,-3.1153,-3.1132,-3.1183,-3.1212,-3.1222,-3.1263,-3.1274,-3.1321,-3.1288,-3.1303,-3.1342,-3.1355,-3.1413,-3.1347,-3.1406,-3.1409,-3.1399,-3.153,-3.155,-3.1649,-3.1487,-3.1489,-3.1491,0,-3.1039,-3.1078,-3.1179,-3.1211,-3.1231,-3.1277,-3.132,-3.1361,-3.1392,-3.1397,-3.1426,-3.1416,-3.1475,-3.1428,-3.1509,-3.1464,-3.1488,-3.1498,-3.1502,-3.1507,-3.1455,-3.1539,-3.1681,-3.1696,-3.1512,-3.1511,-3.1509,0,-3.1124,-3.1202,-3.1272,-3.1291,-3.133,-3.1363,-3.138,-3.1409,-3.1437,-3.1475,-3.1493,-3.1537,-3.1561,-3.1594,-3.1596,-3.1562,-3.1678,-3.1631,-3.1682,-3.1683,-3.1708,-3.1706,-3.1856,-3.1723,-3.1723,-3.1723,-3.1722,0,-3.1239,-3.1302,-3.1311,-3.1355,-3.1424,-3.1423,-3.1491,-3.1505,-3.1531,-3.1576,-3.1561,-3.1603,-3.1603,-3.1646,-3.1648,-3.1715,-3.1725,-3.173,-3.173,-3.1732,-3.1731,-3.1747,-3.1741,-3.1727,-3.1726,-3.1725,-3.1724,0,-3.1346,-3.1355,-3.143,-3.1461,-3.147,-3.152,-3.1545,-3.1586,-3.1595,-3.1652,-3.1666,-3.1679,-3.1729,-3.1734,-3.1792,-3.1793,-3.1874,-3.1866,-3.1864,-3.1862,-3.1914,-3.1909,-3.2079,-3.2101,-3.1954,-3.1955,-3.1957,0,-3.1419,-3.1467,-3.1503,-3.1533,-3.1552,-3.16,-3.163,-3.163,-3.1661,-3.1701,-3.1738,-3.1786,-3.1825,-3.1906,-3.192,-3.1964,-3.1957,-3.2014,-3.1964,-3.1965,-3.1959,-3.1956,-3.1961,-3.2024,-3.2025,-3.2027,-3.2028,0,-3.1548,-3.155,-3.1594,-3.1639,-3.1675,-3.1711,-3.1744,-3.1769,-3.1773,-3.1809,-3.1861,-3.1891,-3.1951,-3.1999,-3.2043,-3.2059,-3.2045,-3.2043,-3.2058,-3.206,-3.2057,-3.206,-3.189,-3.204,-3.2038,-3.2037,-3.2037,-3.2036,-3.164,-3.1682,-3.1714,-3.1763,-3.1789,-3.182,-3.1861,-3.1875,-3.1918,-3.1968,-3.1965,-3.2022,-3.2052,-3.211,-3.213,-3.2174,-3.2155,-3.2175,-3.218,-3.2186,-3.2191,-3.205,-3.2181,-3.2181,-3.2181,-3.218,-3.218,0,-3.1768,-3.1788,-3.1834,-3.1881,-3.192,-3.1904,-3.194,-3.1973,-3.2024,-3.2054,-3.2093,-3.2152,-3.2199,-3.2218,-3.2264,-3.2295,-3.229,-3.2307,-3.2305,-3.2309,-3.2205,-3.2189,-3.2311,-3.2311,-3.2311,-3.2311,-3.2311,-3.2311,-3.1839,-3.191,-3.1916,-3.1998,-3.2017,-3.2074,-3.2096,-3.2125,-3.2149,-3.2217,-3.2256,-3.2268,-3.2294,-3.2341,-3.2383,-3.2388,-3.2405,-3.2426,-3.2427,-3.233,-3.2316,-3.2304,-3.2288,-3.243,-3.243,-3.2527,-3.2528,-3.2529]}]]